EW0139 Weather Reports


time (UTC)temp
C
wind
direction
speed
KPH
gust
KPH
rain 1hr
cm
rain 24hr
cm
rain mn
cm
humidity
%
barometer
mb
20260904042249 17 34 1.6 4.8 0.00 0.00 0.00 43 1008.3
20260904040749 17 34 0.0 4.8 0.00 0.00 0.00 41 1008.2
20260904035256 18 32 4.8 11.3 0.00 0.00 0.00 40 1008.3
20260904033758 18 34 6.4 9.7 0.00 0.00 0.00 39 1008.4
20260904032243 18 38 3.2 9.7 0.00 0.00 0.00 38 1008.4
20260904030744 19 28 3.2 8.0 0.00 0.00 0.00 38 1008.3
20260904025248 19 18 1.6 3.2 0.00 0.00 0.00 36 1008.2
20260904023752 20 19 0.0 4.8 0.00 0.00 0.00 34 1008.2
20260904022253 22 19 1.6 8.0 0.00 0.00 0.00 31 1008.1
20260904020742 23 9 0.0 3.2 0.00 0.00 0.00 30 1008.1
20260904015243 24 9 1.6 3.2 0.00 0.00 0.00 29 1007.8
20260904013747 25 9 0.0 1.6 0.00 0.00 0.00 28 1007.8
20260904012251 26 9 0.0 4.8 0.00 0.00 0.00 26 1007.7
20260904010752 27 342 3.2 4.8 0.00 0.00 0.00 26 1007.4
20260904005255 28 339 0.0 8.0 0.00 0.00 0.00 24 1007.2
20260904003820 28 223 0.0 3.2 0.00 0.00 0.00 22 1007.2
20260904002321 28 223 0.0 6.4 0.00 0.00 0.00 22 1006.8
20260904000740 28 219 0.0 6.4 0.00 0.00 0.00 22 1006.8
20260903235248 28 239 3.2 6.4 0.00 0.00 0.00 21 1007.9
20260903233748 28 134 1.6 6.4 0.00 0.00 0.00 22 1007.7
20260903232254 28 110 0.0 9.7 0.00 0.00 0.00 22 1007.6
20260903230756 28 122 0.0 12.9 0.00 0.00 0.00 22 1007.8
20260903225258 28 225 6.4 20.9 0.00 0.00 0.00 22 1007.6
20260903223743 28 331 1.6 11.3 0.00 0.00 0.00 22 1007.3
20260903222248 28 209 4.8 11.3 0.00 0.00 0.00 22 1007.5
20260903220754 28 265 11.3 16.1 0.00 0.00 0.00 23 1007.4
20260903215254 28 181 8.0 11.3 0.00 0.00 0.00 23 1007.4
20260903213757 27 215 8.0 16.1 0.00 0.00 0.00 23 1007.2
20260903212243 27 176 3.2 11.3 0.00 0.00 0.00 24 1007.2
20260903210744 27 250 0.0 12.9 0.00 0.00 0.00 24 1007.3
20260903205247 27 10 6.4 8.0 0.00 0.00 0.00 25 1007.3
20260903203755 26 207 1.6 9.7 0.00 0.00 0.00 27 1007.2
20260903202318 26 187 3.2 17.7 0.00 0.00 0.00 26 1007.5
20260903200744 26 305 11.3 19.3 0.00 0.00 0.00 25 1007.6
20260903195246 26 181 8.0 20.9 0.00 0.00 0.00 26 1007.6
20260903193748 26 175 14.5 19.3 0.00 0.00 0.00 26 1007.6
20260903192254 25 204 3.2 19.3 0.00 0.00 0.00 28 1007.5
20260903190755 25 188 8.0 19.3 0.00 0.00 0.00 29 1007.5
20260903185241 25 209 6.4 14.5 0.00 0.00 0.00 29 1007.6
20260903183742 25 121 0.0 12.9 0.00 0.00 0.00 31 1007.5
20260903182242 23 138 8.0 14.5 0.00 0.00 0.00 33 1007.7
20260903180808 23 122 8.0 12.9 0.00 0.00 0.00 35 1007.9
20260903175249 23 195 0.0 11.3 0.00 0.00 0.00 37 1007.9
20260903173813 22 180 6.4 11.3 0.00 0.00 0.00 44 1008.2
20260903172241 21 186 3.2 9.7 0.00 0.00 0.00 48 1008.3
20260903170743 20 184 4.8 8.0 0.00 0.00 0.00 48 1008.3